Time,TemperatureF,DewpointF,PressureIn,WindDirection,WindDirectionDegrees,WindSpeedMPH,WindSpeedGustMPH,Humidity,HourlyPrecipIn,Conditions,Clouds,dailyrainin,SoftwareType,DateUTC
2013-06-07 00:03:00,72.2,22.4,29.93,NNW,338,0.0,0.0,16,0.00,,,0.00,WUHU216HW,2013-06-07 07:03:00,
2013-06-07 00:08:00,71.8,22.2,29.93,NNW,338,0.0,0.0,16,0.00,,,0.00,WUHU216HW,2013-06-07 07:08:00,
2013-06-07 00:13:00,71.5,21.8,29.93,NNW,338,0.9,0.9,16,0.00,,,0.00,WUHU216HW,2013-06-07 07:13:00,
2013-06-07 00:18:00,70.9,23.1,29.93,North,0,0.0,0.9,17,0.00,,,0.00,WUHU216HW,2013-06-07 07:18:00,
2013-06-07 00:23:00,70.6,22.7,29.93,NNW,338,0.0,0.9,17,0.00,,,0.00,WUHU216HW,2013-06-07 07:23:00,
2013-06-07 00:28:00,70.4,22.6,29.93,NW,315,0.2,1.3,17,0.00,,,0.00,WUHU216HW,2013-06-07 07:28:00,
2013-06-07 00:33:00,70.2,22.4,29.93,NW,315,0.0,1.3,17,0.00,,,0.00,WUHU216HW,2013-06-07 07:33:00,
2013-06-07 00:38:00,70.0,22.3,29.92,East,90,0.4,0.4,17,0.00,,,0.00,WUHU216HW,2013-06-07 07:38:00,
2013-06-07 00:43:00,69.7,23.6,29.92,SW,225,0.0,1.6,18,0.00,,,0.00,WUHU216HW,2013-06-07 07:43:00,
2013-06-07 00:48:00,69.5,23.5,29.92,WSW,248,0.0,1.6,18,0.00,,,0.00,WUHU216HW,2013-06-07 07:48:00,
2013-06-07 00:53:00,69.5,23.5,29.92,North,0,0.0,1.1,18,0.00,,,0.00,WUHU216HW,2013-06-07 07:53:00,
2013-06-07 00:58:00,69.5,23.5,29.92,North,0,0.0,1.1,18,0.00,,,0.00,WUHU216HW,2013-06-07 07:58:00,
2013-06-07 01:03:00,69.5,23.5,29.92,NNE,23,0.7,0.7,18,0.00,,,0.00,WUHU216HW,2013-06-07 08:03:00,
2013-06-07 01:08:00,70.2,24.0,29.92,NE,45,1.8,1.8,18,0.00,,,0.00,WUHU216HW,2013-06-07 08:08:00,
2013-06-07 01:13:00,72.4,25.8,29.92,NE,45,1.1,2.9,18,0.00,,,0.00,WUHU216HW,2013-06-07 08:13:00,
2013-06-07 01:18:00,73.6,25.3,29.92,NNE,23,2.7,2.9,17,0.00,,,0.00,WUHU216HW,2013-06-07 08:18:00,
2013-06-07 01:23:00,74.9,24.6,29.92,North,0,0.9,3.6,16,0.00,,,0.00,WUHU216HW,2013-06-07 08:23:00,
2013-06-07 01:28:00,75.4,25.0,29.91,North,0,0.9,3.6,16,0.00,,,0.00,WUHU216HW,2013-06-07 08:28:00,
2013-06-07 01:33:00,75.6,25.2,29.91,North,0,0.7,1.3,16,0.00,,,0.00,WUHU216HW,2013-06-07 08:33:00,
2013-06-07 01:38:00,76.0,25.5,29.91,North,0,1.1,1.8,16,0.00,,,0.00,WUHU216HW,2013-06-07 08:38:00,
2013-06-07 01:43:00,76.3,24.1,29.91,NNW,338,0.4,2.2,15,0.00,,,0.00,WUHU216HW,2013-06-07 08:43:00,
2013-06-07 01:48:00,76.3,24.1,29.91,NNW,338,1.1,2.7,15,0.00,,,0.00,WUHU216HW,2013-06-07 08:48:00,
2013-06-07 01:53:00,76.5,24.2,29.91,NW,315,0.4,3.6,15,0.00,,,0.00,WUHU216HW,2013-06-07 08:53:00,
2013-06-07 01:58:00,76.1,23.9,29.91,NNW,338,0.0,3.6,15,0.00,,,0.00,WUHU216HW,2013-06-07 08:58:00,
2013-06-07 02:03:00,75.8,23.7,29.91,NW,315,1.8,3.1,15,0.00,,,0.00,WUHU216HW,2013-06-07 09:03:00,
2013-06-07 02:08:00,76.0,23.8,29.91,WNW,293,0.4,3.1,15,0.00,,,0.00,WUHU216HW,2013-06-07 09:08:00,
2013-06-07 02:13:00,75.6,23.5,29.91,WNW,293,0.0,2.5,15,0.00,,,0.00,WUHU216HW,2013-06-07 09:13:00,
2013-06-07 02:18:00,74.9,23.0,29.91,WNW,293,0.0,0.4,15,0.00,,,0.00,WUHU216HW,2013-06-07 09:18:00,
2013-06-07 02:23:00,74.2,22.4,29.91,WNW,293,0.0,0.4,15,0.00,,,0.00,WUHU216HW,2013-06-07 09:23:00,
2013-06-07 02:28:00,73.6,23.7,29.91,SE,135,0.2,0.4,16,0.00,,,0.00,WUHU216HW,2013-06-07 09:28:00,
2013-06-07 02:33:00,73.1,23.2,29.91,SE,135,0.2,1.1,16,0.00,,,0.00,WUHU216HW,2013-06-07 09:33:00,
2013-06-07 02:38:00,72.5,24.4,29.91,SE,135,1.3,1.3,17,0.00,,,0.00,WUHU216HW,2013-06-07 09:38:00,
2013-06-07 02:43:00,72.0,23.9,29.91,ESE,113,0.0,1.3,17,0.00,,,0.00,WUHU216HW,2013-06-07 09:43:00,
2013-06-07 02:48:00,71.5,23.4,29.91,ESE,113,0.0,1.3,17,0.00,,,0.00,WUHU216HW,2013-06-07 09:48:00,
2013-06-07 02:53:00,70.9,24.7,29.92,North,0,0.0,1.1,18,0.00,,,0.00,WUHU216HW,2013-06-07 09:53:00,
2013-06-07 02:58:00,70.7,24.5,29.92,North,0,0.0,1.1,18,0.00,,,0.00,WUHU216HW,2013-06-07 09:58:00,
2013-06-07 03:03:00,70.4,24.2,29.91,NE,45,0.0,0.4,18,0.00,,,0.00,WUHU216HW,2013-06-07 10:03:00,
2013-06-07 03:08:00,70.0,24.0,29.91,North,0,0.0,1.1,18,0.00,,,0.00,WUHU216HW,2013-06-07 10:08:00,
2013-06-07 03:13:00,69.7,23.6,29.92,North,0,0.0,1.1,18,0.00,,,0.00,WUHU216HW,2013-06-07 10:13:00,
2013-06-07 03:18:00,69.3,24.9,29.92,North,0,0.0,0.4,19,0.00,,,0.00,WUHU216HW,2013-06-07 10:18:00,
2013-06-07 03:23:00,68.8,24.6,29.92,North,0,0.4,0.4,19,0.00,,,0.00,WUHU216HW,2013-06-07 10:23:00,
2013-06-07 03:28:00,68.6,24.4,29.92,NE,45,0.2,0.4,19,0.00,,,0.00,WUHU216HW,2013-06-07 10:28:00,
2013-06-07 03:33:00,68.4,25.8,29.92,NE,45,0.0,0.4,20,0.00,,,0.00,WUHU216HW,2013-06-07 10:33:00,
2013-06-07 03:38:00,67.9,26.4,29.92,NE,45,0.4,0.4,21,0.00,,,0.00,WUHU216HW,2013-06-07 10:38:00,
2013-06-07 03:43:00,67.5,26.1,29.92,NE,45,0.0,0.4,21,0.00,,,0.00,WUHU216HW,2013-06-07 10:43:00,
2013-06-07 03:48:00,67.3,25.9,29.92,NE,45,0.0,0.2,21,0.00,,,0.00,WUHU216HW,2013-06-07 10:48:00,
2013-06-07 03:53:00,67.0,25.6,29.92,NE,45,0.0,0.0,21,0.00,,,0.00,WUHU216HW,2013-06-07 10:53:00,
2013-06-07 03:58:00,66.6,26.3,29.92,NE,45,0.0,0.0,22,0.00,,,0.00,WUHU216HW,2013-06-07 10:58:00,
2013-06-07 04:03:00,66.4,26.1,29.92,NE,45,0.0,0.0,22,0.00,,,0.00,WUHU216HW,2013-06-07 11:03:00,
2013-06-07 04:08:00,66.1,25.8,29.92,NE,45,0.0,0.0,22,0.00,,,0.00,WUHU216HW,2013-06-07 11:08:00,
2013-06-07 04:13:00,65.7,25.5,29.92,NE,45,0.0,0.0,22,0.00,,,0.00,WUHU216HW,2013-06-07 11:13:00,
2013-06-07 04:18:00,65.3,25.2,29.92,NE,45,0.0,0.0,22,0.00,,,0.00,WUHU216HW,2013-06-07 11:18:00,
2013-06-07 04:23:00,65.2,26.1,29.92,NE,45,0.0,0.0,23,0.00,,,0.00,WUHU216HW,2013-06-07 11:23:00,
2013-06-07 04:28:00,64.8,25.7,29.92,NE,45,0.0,0.0,23,0.00,,,0.00,WUHU216HW,2013-06-07 11:28:00,
2013-06-07 04:33:00,64.8,25.7,29.92,NE,45,0.0,0.0,23,0.00,,,0.00,WUHU216HW,2013-06-07 11:33:00,
2013-06-07 04:38:00,64.4,25.5,29.92,North,0,0.0,0.2,23,0.00,,,0.00,WUHU216HW,2013-06-07 11:38:00,
2013-06-07 04:43:00,64.1,26.2,29.92,North,0,0.0,0.4,24,0.00,,,0.00,WUHU216HW,2013-06-07 11:43:00,
2013-06-07 04:48:00,64.1,26.2,29.92,North,0,0.0,0.4,24,0.00,,,0.00,WUHU216HW,2013-06-07 11:48:00,
2013-06-07 04:53:00,63.9,26.0,29.92,North,0,0.0,0.0,24,0.00,,,0.00,WUHU216HW,2013-06-07 11:53:00,
2013-06-07 04:58:00,63.7,25.8,29.92,North,0,0.0,0.0,24,0.00,,,0.00,WUHU216HW,2013-06-07 11:58:00,
2013-06-07 05:03:00,63.5,26.7,29.92,North,0,0.0,0.0,25,0.00,,,0.00,WUHU216HW,2013-06-07 12:03:00,
2013-06-07 05:08:00,63.4,26.6,29.92,North,0,0.0,0.0,25,0.00,,,0.00,WUHU216HW,2013-06-07 12:08:00,
2013-06-07 05:13:00,63.4,26.6,29.93,North,0,0.0,0.0,25,0.00,,,0.00,WUHU216HW,2013-06-07 12:13:00,
2013-06-07 05:18:00,63.5,26.7,29.93,North,0,0.0,0.0,25,0.00,,,0.00,WUHU216HW,2013-06-07 12:18:00,
2013-06-07 05:23:00,63.4,26.6,29.93,North,0,0.0,0.0,25,0.00,,,0.00,WUHU216HW,2013-06-07 12:23:00,
2013-06-07 05:28:00,63.4,26.6,29.93,North,0,0.0,0.0,25,0.00,,,0.00,WUHU216HW,2013-06-07 12:28:00,
2013-06-07 05:33:00,63.2,26.4,29.93,North,0,0.0,0.0,25,0.00,,,0.00,WUHU216HW,2013-06-07 12:33:00,
2013-06-07 05:38:00,63.2,27.4,29.93,North,0,0.0,0.0,26,0.00,,,0.00,WUHU216HW,2013-06-07 12:38:00,
2013-06-07 05:43:00,63.2,26.4,29.93,North,0,0.0,0.0,25,0.00,,,0.00,WUHU216HW,2013-06-07 12:43:00,
2013-06-07 05:48:00,63.4,26.6,29.93,North,0,0.0,0.0,25,0.00,,,0.00,WUHU216HW,2013-06-07 12:48:00,
2013-06-07 05:53:00,63.5,26.7,29.93,North,0,0.0,0.0,25,0.00,,,0.00,WUHU216HW,2013-06-07 12:53:00,
2013-06-07 05:58:00,63.7,27.8,29.93,North,0,0.0,0.0,26,0.00,,,0.00,WUHU216HW,2013-06-07 12:58:00,
2013-06-07 06:03:00,63.9,29.0,29.93,North,0,0.0,0.0,27,0.00,,,0.00,WUHU216HW,2013-06-07 13:03:00,
2013-06-07 06:08:00,64.1,29.2,29.93,NE,45,0.0,0.0,27,0.00,,,0.00,WUHU216HW,2013-06-07 13:08:00,
2013-06-07 06:13:00,64.6,28.6,29.94,NE,45,0.0,0.0,26,0.00,,,0.00,WUHU216HW,2013-06-07 13:13:00,
2013-06-07 06:18:00,65.2,30.1,29.94,NE,45,0.0,0.0,27,0.00,,,0.00,WUHU216HW,2013-06-07 13:18:00,
2013-06-07 06:23:00,65.5,31.4,29.94,NNE,23,0.0,0.0,28,0.00,,,0.00,WUHU216HW,2013-06-07 13:23:00,
2013-06-07 06:29:00,66.2,33.0,29.94,NNE,23,0.0,0.0,29,0.00,,,0.00,WUHU216HW,2013-06-07 13:29:00,
2013-06-07 06:34:00,67.0,34.6,29.94,NNW,338,0.0,0.4,30,0.00,,,0.00,WUHU216HW,2013-06-07 13:34:00,
2013-06-07 06:41:00,68.4,33.9,29.94,NNW,338,0.0,1.1,28,0.00,,,0.00,WUHU216HW,2013-06-07 13:41:00,
2013-06-07 06:46:00,69.1,32.4,29.94,SE,135,0.7,0.7,26,0.00,,,0.00,WUHU216HW,2013-06-07 13:46:00,
2013-06-07 06:51:00,69.8,32.0,29.94,SE,135,0.0,0.9,25,0.00,,,0.00,WUHU216HW,2013-06-07 13:51:00,
2013-06-07 06:56:00,70.4,31.5,29.94,SE,135,0.0,0.9,24,0.00,,,0.00,WUHU216HW,2013-06-07 13:56:00,
2013-06-07 07:01:00,71.5,32.4,29.94,SE,135,0.0,0.2,24,0.00,,,0.00,WUHU216HW,2013-06-07 14:01:00,
2013-06-07 07:06:00,72.2,32.0,29.94,SE,135,0.4,0.7,23,0.00,,,0.00,WUHU216HW,2013-06-07 14:06:00,
2013-06-07 07:11:00,73.3,32.0,29.94,NW,315,0.0,0.7,22,0.00,,,0.00,WUHU216HW,2013-06-07 14:11:00,
2013-06-07 07:16:00,74.0,31.5,29.94,NW,315,0.0,0.4,21,0.00,,,0.00,WUHU216HW,2013-06-07 14:16:00,
2013-06-07 07:22:00,74.5,32.0,29.94,NW,315,0.0,0.0,21,0.00,,,0.00,WUHU216HW,2013-06-07 14:22:00,
2013-06-07 07:27:00,74.9,29.5,29.95,NW,315,0.0,0.0,19,0.00,,,0.00,WUHU216HW,2013-06-07 14:27:00,
2013-06-07 07:32:00,75.4,30.0,29.95,NW,315,0.0,0.0,19,0.00,,,0.00,WUHU216HW,2013-06-07 14:32:00,
2013-06-07 07:37:00,76.1,30.6,29.95,NW,315,0.0,0.2,19,0.00,,,0.00,WUHU216HW,2013-06-07 14:37:00,
2013-06-07 07:42:00,76.7,31.0,29.95,ENE,68,0.2,0.2,19,0.00,,,0.00,WUHU216HW,2013-06-07 14:42:00,
2013-06-07 07:47:00,77.4,29.9,29.95,ESE,113,0.0,0.4,18,0.00,,,0.00,WUHU216HW,2013-06-07 14:47:00,
2013-06-07 07:54:00,78.1,30.5,29.95,NNE,23,1.6,1.8,18,0.00,,,0.00,WUHU216HW,2013-06-07 14:54:00,
2013-06-07 07:59:00,78.7,30.9,29.95,East,90,0.0,1.8,18,0.00,,,0.00,WUHU216HW,2013-06-07 14:59:00,
2013-06-07 08:04:00,78.8,31.1,29.95,North,0,1.1,1.8,18,0.00,,,0.00,WUHU216HW,2013-06-07 15:04:00,
2013-06-07 08:09:00,79.4,31.5,29.95,East,90,0.7,2.7,18,0.00,,,0.00,WUHU216HW,2013-06-07 15:09:00,
2013-06-07 08:14:00,79.9,32.0,29.95,ENE,68,1.1,2.7,18,0.00,,,0.00,WUHU216HW,2013-06-07 15:14:00,
2013-06-07 08:19:00,80.3,32.3,29.95,NE,45,1.6,2.9,18,0.00,,,0.00,WUHU216HW,2013-06-07 15:19:00,
2013-06-07 08:24:00,80.6,31.0,29.95,NE,45,1.8,2.9,17,0.00,,,0.00,WUHU216HW,2013-06-07 15:24:00,
2013-06-07 08:29:00,81.0,33.0,29.95,NE,45,2.7,2.7,18,0.00,,,0.00,WUHU216HW,2013-06-07 15:29:00,
2013-06-07 08:34:00,81.0,33.0,29.95,East,90,0.7,2.7,18,0.00,,,0.00,WUHU216HW,2013-06-07 15:34:00,
2013-06-07 08:39:00,81.0,34.6,29.95,ENE,68,1.1,2.7,19,0.00,,,0.00,WUHU216HW,2013-06-07 15:39:00,
2013-06-07 08:44:00,81.0,34.6,29.95,SE,135,2.5,2.5,19,0.00,,,0.00,WUHU216HW,2013-06-07 15:44:00,
2013-06-07 08:49:00,81.4,34.9,29.95,East,90,1.3,2.5,19,0.00,,,0.00,WUHU216HW,2013-06-07 15:49:00,
2013-06-07 08:54:00,81.5,35.0,29.95,East,90,0.4,2.2,19,0.00,,,0.00,WUHU216HW,2013-06-07 15:54:00,
2013-06-07 08:59:00,81.7,33.5,29.95,East,90,1.1,2.5,18,0.00,,,0.00,WUHU216HW,2013-06-07 15:59:00,
2013-06-07 09:04:00,82.3,33.9,29.95,ESE,113,1.1,2.5,18,0.00,,,0.00,WUHU216HW,2013-06-07 16:04:00,
2013-06-07 09:09:00,82.4,32.4,29.95,NNE,23,0.4,2.5,17,0.00,,,0.00,WUHU216HW,2013-06-07 16:09:00,
2013-06-07 09:14:00,83.0,32.8,29.95,NW,315,0.0,2.5,17,0.00,,,0.00,WUHU216HW,2013-06-07 16:14:00,
2013-06-07 09:19:00,83.2,33.0,29.95,East,90,0.7,2.5,17,0.00,,,0.00,WUHU216HW,2013-06-07 16:19:00,
2013-06-07 09:24:00,83.7,33.3,29.95,ESE,113,0.9,3.4,17,0.00,,,0.00,WUHU216HW,2013-06-07 16:24:00,
2013-06-07 09:29:00,83.9,33.5,29.95,East,90,2.5,3.4,17,0.00,,,0.00,WUHU216HW,2013-06-07 16:29:00,
2013-06-07 09:34:00,84.2,33.8,29.95,East,90,0.9,2.5,17,0.00,,,0.00,WUHU216HW,2013-06-07 16:34:00,
2013-06-07 09:39:00,84.4,32.2,29.95,NE,45,1.1,2.5,16,0.00,,,0.00,WUHU216HW,2013-06-07 16:39:00,
2013-06-07 09:44:00,84.6,32.3,29.95,NNW,338,0.7,2.5,16,0.00,,,0.00,WUHU216HW,2013-06-07 16:44:00,
2013-06-07 09:49:00,85.0,32.6,29.94,SE,135,2.2,2.5,16,0.00,,,0.00,WUHU216HW,2013-06-07 16:49:00,
2013-06-07 09:54:00,85.3,33.0,29.94,East,90,1.3,2.2,16,0.00,,,0.00,WUHU216HW,2013-06-07 16:54:00,
2013-06-07 09:59:00,85.7,33.2,29.94,ESE,113,1.6,1.6,16,0.00,,,0.00,WUHU216HW,2013-06-07 16:59:00,
2013-06-07 10:04:00,86.0,33.5,29.94,ESE,113,1.1,3.8,16,0.00,,,0.00,WUHU216HW,2013-06-07 17:04:00,
2013-06-07 10:09:00,86.4,33.8,29.94,NE,45,0.9,3.8,16,0.00,,,0.00,WUHU216HW,2013-06-07 17:09:00,
2013-06-07 10:14:00,86.8,32.4,29.94,SE,135,0.4,2.7,15,0.00,,,0.00,WUHU216HW,2013-06-07 17:14:00,
2013-06-07 10:19:00,87.1,32.7,29.94,ENE,68,1.1,2.2,15,0.00,,,0.00,WUHU216HW,2013-06-07 17:19:00,
2013-06-07 10:24:00,87.1,32.7,29.94,ENE,68,1.1,3.4,15,0.00,,,0.00,WUHU216HW,2013-06-07 17:24:00,
2013-06-07 10:29:00,87.5,33.0,29.94,NE,45,1.1,3.4,15,0.00,,,0.00,WUHU216HW,2013-06-07 17:29:00,
2013-06-07 10:34:00,87.7,33.1,29.94,NW,315,0.7,1.3,15,0.00,,,0.00,WUHU216HW,2013-06-07 17:34:00,
2013-06-07 10:39:00,87.8,33.3,29.94,East,90,0.9,2.7,15,0.00,,,0.00,WUHU216HW,2013-06-07 17:39:00,
2013-06-07 10:44:00,88.2,33.6,29.94,SE,135,1.1,2.7,15,0.00,,,0.00,WUHU216HW,2013-06-07 17:44:00,
2013-06-07 10:49:00,88.6,30.3,29.94,ESE,113,1.8,4.5,13,0.00,,,0.00,WUHU216HW,2013-06-07 17:49:00,
2013-06-07 10:55:00,88.7,32.2,29.94,SSW,203,1.3,4.5,14,0.00,,,0.00,WUHU216HW,2013-06-07 17:55:00,
2013-06-07 11:00:00,88.9,32.4,29.94,ESE,113,1.3,3.4,14,0.00,,,0.00,WUHU216HW,2013-06-07 18:00:00,
2013-06-07 11:05:00,89.1,29.0,29.94,NE,45,1.1,2.7,12,0.00,,,0.00,WUHU216HW,2013-06-07 18:05:00,
2013-06-07 11:10:00,89.3,30.9,29.94,SE,135,0.7,2.0,13,0.00,,,0.00,WUHU216HW,2013-06-07 18:10:00,
2013-06-07 11:15:00,89.8,33.0,29.94,ESE,113,0.4,2.0,14,0.00,,,0.00,WUHU216HW,2013-06-07 18:15:00,
2013-06-07 11:20:00,90.0,29.7,29.93,NNW,338,0.4,2.0,12,0.00,,,0.00,WUHU216HW,2013-06-07 18:20:00,
2013-06-07 11:25:00,90.2,31.6,29.93,WSW,248,0.4,2.5,13,0.00,,,0.00,WUHU216HW,2013-06-07 18:25:00,
2013-06-07 11:30:00,90.5,31.9,29.93,ENE,68,1.8,2.9,13,0.00,,,0.00,WUHU216HW,2013-06-07 18:30:00,
2013-06-07 11:35:00,90.5,28.4,29.93,NNW,338,1.1,2.9,11,0.00,,,0.00,WUHU216HW,2013-06-07 18:35:00,
2013-06-07 11:42:00,90.9,30.4,29.93,NE,45,3.4,3.4,12,0.00,,,0.00,WUHU216HW,2013-06-07 18:42:00,
2013-06-07 11:47:00,91.3,30.7,29.93,SE,135,1.1,3.4,12,0.00,,,0.00,WUHU216HW,2013-06-07 18:47:00,
2013-06-07 11:52:00,91.4,29.1,29.93,NW,315,1.8,3.4,11,0.00,,,0.00,WUHU216HW,2013-06-07 18:52:00,
2013-06-07 11:57:00,91.6,31.0,29.92,North,0,1.1,3.1,12,0.00,,,0.00,WUHU216HW,2013-06-07 18:57:00,
2013-06-07 12:02:00,91.8,29.3,29.92,ENE,68,1.8,2.5,11,0.00,,,0.00,WUHU216HW,2013-06-07 19:02:00,
2013-06-07 12:08:00,92.0,29.5,29.92,North,0,1.6,2.2,11,0.00,,,0.00,WUHU216HW,2013-06-07 19:08:00,
2013-06-07 12:13:00,92.0,29.5,29.92,NE,45,2.0,3.8,11,0.00,,,0.00,WUHU216HW,2013-06-07 19:13:00,
2013-06-07 12:18:00,92.0,29.5,29.92,SSE,158,1.1,4.5,11,0.00,,,0.00,WUHU216HW,2013-06-07 19:18:00,
2013-06-07 12:23:00,92.0,29.5,29.91,East,90,0.4,4.5,11,0.00,,,0.00,WUHU216HW,2013-06-07 19:23:00,
2013-06-07 12:28:00,92.3,28.0,29.91,North,0,0.0,2.9,8,0.00,,,0.00,WUHU216HW,2013-06-07 19:28:00,
2013-06-07 12:33:00,92.5,28.1,29.91,SSE,158,3.4,4.0,7,0.00,,,0.00,WUHU216HW,2013-06-07 19:33:00,
2013-06-07 12:38:00,93.1,28.5,29.91,SSE,158,1.8,4.0,8,0.00,,,0.00,WUHU216HW,2013-06-07 19:38:00,
2013-06-07 12:43:00,93.8,29.1,29.91,WSW,248,1.1,3.4,8,0.00,,,0.00,WUHU216HW,2013-06-07 19:43:00,
2013-06-07 12:48:00,94.1,29.3,29.90,NE,45,2.0,2.9,9,0.00,,,0.00,WUHU216HW,2013-06-07 19:48:00,
2013-06-07 12:55:00,94.1,29.3,29.90,SE,135,4.5,6.7,10,0.00,,,0.00,WUHU216HW,2013-06-07 19:55:00,
2013-06-07 13:00:00,94.1,29.3,29.90,SE,135,4.3,6.9,8,0.00,,,0.00,WUHU216HW,2013-06-07 20:00:00,
2013-06-07 13:05:00,94.1,29.3,29.90,ESE,113,2.9,6.9,9,0.00,,,0.00,WUHU216HW,2013-06-07 20:05:00,
2013-06-07 13:10:00,94.0,29.2,29.90,SSE,158,2.9,4.7,10,0.00,,,0.00,WUHU216HW,2013-06-07 20:10:00,
2013-06-07 13:15:00,94.9,29.9,29.90,WSW,248,4.0,7.6,8,0.00,,,0.00,WUHU216HW,2013-06-07 20:15:00,
2013-06-07 13:20:00,95.6,30.4,29.89,WSW,248,3.8,7.6,7,0.00,,,0.00,WUHU216HW,2013-06-07 20:20:00,
2013-06-07 13:25:00,95.9,30.7,29.89,WNW,293,1.6,6.7,7,0.00,,,0.00,WUHU216HW,2013-06-07 20:25:00,
2013-06-07 13:31:00,94.9,29.9,29.89,SE,135,2.9,4.7,8,0.00,,,0.00,WUHU216HW,2013-06-07 20:31:00,
2013-06-07 13:36:00,94.7,29.8,29.89,East,90,2.5,4.7,10,0.00,,,0.00,WUHU216HW,2013-06-07 20:36:00,
2013-06-07 13:42:00,95.0,30.1,29.88,North,0,0.7,4.0,8,0.00,,,0.00,WUHU216HW,2013-06-07 20:42:00,
2013-06-07 13:48:00,94.9,29.9,29.88,NNE,23,2.0,4.7,8,0.00,,,0.00,WUHU216HW,2013-06-07 20:48:00,
2013-06-07 13:53:00,94.3,29.5,29.88,East,90,1.1,4.7,8,0.00,,,0.00,WUHU216HW,2013-06-07 20:53:00,
2013-06-07 13:58:00,94.7,29.8,29.88,ESE,113,1.3,4.3,10,0.00,,,0.00,WUHU216HW,2013-06-07 20:58:00,
2013-06-07 14:03:00,95.4,30.3,29.88,ENE,68,0.2,4.3,10,0.00,,,0.00,WUHU216HW,2013-06-07 21:03:00,
2013-06-07 14:08:00,95.8,30.6,29.88,NNE,23,2.9,3.6,8,0.00,,,0.00,WUHU216HW,2013-06-07 21:08:00,
2013-06-07 14:13:00,95.2,30.2,29.88,SSE,158,0.7,2.9,8,0.00,,,0.00,WUHU216HW,2013-06-07 21:13:00,
2013-06-07 14:18:00,95.2,30.2,29.87,NW,315,2.5,4.3,7,0.00,,,0.00,WUHU216HW,2013-06-07 21:18:00,
2013-06-07 14:24:00,95.4,30.3,29.87,WNW,293,4.3,4.3,7,0.00,,,0.00,WUHU216HW,2013-06-07 21:24:00,
2013-06-07 14:29:00,95.4,30.3,29.86,West,270,5.6,9.2,7,0.00,,,0.00,WUHU216HW,2013-06-07 21:29:00,
2013-06-07 14:35:00,95.6,30.4,29.87,NW,315,2.0,9.2,7,0.00,,,0.00,WUHU216HW,2013-06-07 21:35:00,
2013-06-07 14:40:00,96.1,30.8,29.86,South,180,4.0,6.3,8,0.00,,,0.00,WUHU216HW,2013-06-07 21:40:00,
2013-06-07 14:45:00,96.3,31.0,29.86,SSE,158,2.0,6.0,7,0.00,,,0.00,WUHU216HW,2013-06-07 21:45:00,
2013-06-07 14:51:00,95.8,30.6,29.86,WSW,248,2.2,7.8,7,0.00,,,0.00,WUHU216HW,2013-06-07 21:51:00,
2013-06-07 14:56:00,95.6,30.4,29.86,SSW,203,2.5,7.8,6,0.00,,,0.00,WUHU216HW,2013-06-07 21:56:00,
2013-06-07 15:01:00,95.9,30.7,29.86,WSW,248,0.7,6.9,7,0.00,,,0.00,WUHU216HW,2013-06-07 22:01:00,
2013-06-07 15:07:00,96.7,31.2,29.86,East,90,2.5,5.4,7,0.00,,,0.00,WUHU216HW,2013-06-07 22:07:00,
2013-06-07 15:12:00,97.4,31.8,29.85,SW,225,2.7,5.4,7,0.00,,,0.00,WUHU216HW,2013-06-07 22:12:00,
2013-06-07 15:17:00,97.9,32.2,29.85,WSW,248,4.0,5.6,6,0.00,,,0.00,WUHU216HW,2013-06-07 22:17:00,
2013-06-07 15:22:00,97.6,31.9,29.85,West,270,7.2,9.4,6,0.00,,,0.00,WUHU216HW,2013-06-07 22:22:00,
2013-06-07 15:27:00,97.2,31.6,29.85,WSW,248,5.4,11.0,6,0.00,,,0.00,WUHU216HW,2013-06-07 22:27:00,
2013-06-07 15:32:00,97.0,31.5,29.84,WSW,248,7.4,11.0,6,0.00,,,0.00,WUHU216HW,2013-06-07 22:32:00,
2013-06-07 15:37:00,96.8,31.3,29.84,WSW,248,5.1,9.4,6,0.00,,,0.00,WUHU216HW,2013-06-07 22:37:00,
2013-06-07 15:42:00,97.2,31.6,29.85,SSW,203,5.6,9.4,6,0.00,,,0.00,WUHU216HW,2013-06-07 22:42:00,
2013-06-07 15:48:00,98.3,32.5,29.84,WSW,248,2.5,8.3,5,0.00,,,0.00,WUHU216HW,2013-06-07 22:48:00,
2013-06-07 15:53:00,98.6,32.8,29.84,SE,135,2.5,8.3,6,0.00,,,0.00,WUHU216HW,2013-06-07 22:53:00,
2013-06-07 15:58:00,98.5,32.6,29.84,SW,225,3.1,7.6,6,0.00,,,0.00,WUHU216HW,2013-06-07 22:58:00,
2013-06-07 16:03:00,98.5,32.6,29.83,WSW,248,2.9,7.6,6,0.00,,,0.00,WUHU216HW,2013-06-07 23:03:00,
2013-06-07 16:08:00,97.9,32.2,29.83,West,270,4.0,8.1,5,0.00,,,0.00,WUHU216HW,2013-06-07 23:08:00,
2013-06-07 16:13:00,97.2,31.6,29.83,SW,225,5.4,8.9,5,0.00,,,0.00,WUHU216HW,2013-06-07 23:13:00,
2013-06-07 16:18:00,97.2,31.6,29.83,WSW,248,5.4,8.9,6,0.00,,,0.00,WUHU216HW,2013-06-07 23:18:00,
2013-06-07 16:23:00,97.2,31.6,29.83,West,270,3.1,7.6,5,0.00,,,0.00,WUHU216HW,2013-06-07 23:23:00,
2013-06-07 16:28:00,97.0,31.5,29.83,SW,225,2.5,8.7,5,0.00,,,0.00,WUHU216HW,2013-06-07 23:28:00,
2013-06-07 16:33:00,96.8,31.3,29.83,SSW,203,4.3,8.7,5,0.00,,,0.00,WUHU216HW,2013-06-07 23:33:00,
2013-06-07 16:38:00,96.7,31.2,29.83,West,270,4.0,5.8,6,0.00,,,0.00,WUHU216HW,2013-06-07 23:38:00,
2013-06-07 16:44:00,96.3,31.0,29.83,SSW,203,0.0,4.7,6,0.00,,,0.00,WUHU216HW,2013-06-07 23:44:00,
2013-06-07 16:49:00,96.3,31.0,29.83,WNW,293,2.9,4.9,6,0.00,,,0.00,WUHU216HW,2013-06-07 23:49:00,
2013-06-07 16:54:00,96.3,31.0,29.83,WSW,248,3.4,5.6,6,0.00,,,0.00,WUHU216HW,2013-06-07 23:54:00,
2013-06-07 16:59:00,96.5,31.1,29.83,NW,315,2.7,5.6,5,0.00,,,0.00,WUHU216HW,2013-06-07 23:59:00,
2013-06-07 17:04:00,97.0,31.5,29.83,West,270,6.3,6.3,5,0.00,,,0.00,WUHU216HW,2013-06-08 00:04:00,
2013-06-07 17:09:00,99.2,33.2,29.83,NW,315,1.3,6.3,5,0.00,,,0.00,WUHU216HW,2013-06-08 00:09:00,
2013-06-07 17:14:00,101.3,34.8,29.83,West,270,3.4,6.3,5,0.00,,,0.00,WUHU216HW,2013-06-08 00:14:00,
2013-06-07 17:19:00,104.8,37.5,29.83,SE,135,2.2,4.9,6,0.00,,,0.00,WUHU216HW,2013-06-08 00:19:00,
2013-06-07 17:24:00,107.5,39.4,29.83,West,270,1.1,4.9,5,0.00,,,0.00,WUHU216HW,2013-06-08 00:24:00,
2013-06-07 17:29:00,107.5,39.4,29.83,NNW,338,0.4,3.4,3,0.00,,,0.00,WUHU216HW,2013-06-08 00:29:00,
2013-06-07 17:34:00,108.0,39.9,29.83,North,0,0.2,4.7,2,0.00,,,0.00,WUHU216HW,2013-06-08 00:34:00,
2013-06-07 17:39:00,107.3,39.3,29.83,NW,315,1.8,4.7,3,0.00,,,0.00,WUHU216HW,2013-06-08 00:39:00,
2013-06-07 17:45:00,106.6,38.7,29.82,NW,315,3.4,4.5,2,0.00,,,0.00,WUHU216HW,2013-06-08 00:45:00,
2013-06-07 17:50:00,100.6,34.3,29.82,West,270,1.8,4.9,3,0.00,,,0.00,WUHU216HW,2013-06-08 00:50:00,
2013-06-07 17:56:00,102.4,35.7,29.82,WNW,293,1.8,4.7,5,0.00,,,0.00,WUHU216HW,2013-06-08 00:56:00,
2013-06-07 18:01:00,103.3,36.4,29.83,NW,315,0.2,4.5,3,0.00,,,0.00,WUHU216HW,2013-06-08 01:01:00,
2013-06-07 18:06:00,102.2,35.5,29.82,NNW,338,1.3,5.8,3,0.00,,,0.00,WUHU216HW,2013-06-08 01:06:00,
2013-06-07 18:12:00,98.5,32.6,29.83,NW,315,2.5,5.8,5,0.00,,,0.00,WUHU216HW,2013-06-08 01:12:00,
2013-06-07 18:17:00,95.6,30.4,29.82,WSW,248,0.7,4.3,5,0.00,,,0.00,WUHU216HW,2013-06-08 01:17:00,
2013-06-07 18:22:00,94.7,29.8,29.83,West,270,0.4,3.1,5,0.00,,,0.00,WUHU216HW,2013-06-08 01:22:00,
2013-06-07 18:27:00,94.3,29.5,29.82,WNW,293,1.1,2.2,6,0.00,,,0.00,WUHU216HW,2013-06-08 01:27:00,
2013-06-07 18:32:00,93.4,28.8,29.83,WNW,293,2.2,2.2,6,0.00,,,0.00,WUHU216HW,2013-06-08 01:32:00,
2013-06-07 18:37:00,92.7,28.3,29.83,NW,315,2.5,4.0,6,0.00,,,0.00,WUHU216HW,2013-06-08 01:37:00,
2013-06-07 18:43:00,92.3,28.0,29.83,NW,315,2.5,4.0,6,0.00,,,0.00,WUHU216HW,2013-06-08 01:43:00,
2013-06-07 18:48:00,91.8,27.6,29.83,West,270,3.6,4.7,7,0.00,,,0.00,WUHU216HW,2013-06-08 01:48:00,
2013-06-07 18:53:00,91.8,27.6,29.83,WNW,293,1.6,4.7,7,0.00,,,0.00,WUHU216HW,2013-06-08 01:53:00,
2013-06-07 18:58:00,91.4,27.4,29.83,NW,315,1.6,3.6,7,0.00,,,0.00,WUHU216HW,2013-06-08 01:58:00,
2013-06-07 19:03:00,91.3,27.2,29.83,NNW,338,2.5,3.4,7,0.00,,,0.00,WUHU216HW,2013-06-08 02:03:00,
2013-06-07 19:08:00,90.9,26.9,29.83,NW,315,2.2,3.4,7,0.00,,,0.00,WUHU216HW,2013-06-08 02:08:00,
2013-06-07 19:13:00,90.4,26.5,29.83,NNW,338,0.4,2.5,7,0.00,,,0.00,WUHU216HW,2013-06-08 02:13:00,
2013-06-07 19:18:00,90.0,26.2,29.83,NW,315,0.0,2.5,7,0.00,,,0.00,WUHU216HW,2013-06-08 02:18:00,
2013-06-07 19:23:00,89.3,25.7,29.84,NNW,338,0.7,1.8,8,0.00,,,0.00,WUHU216HW,2013-06-08 02:23:00,
2013-06-07 19:29:00,88.9,25.4,29.84,NW,315,1.3,3.1,7,0.00,,,0.00,WUHU216HW,2013-06-08 02:29:00,
2013-06-07 19:34:00,88.7,25.3,29.84,NW,315,0.0,3.1,8,0.00,,,0.00,WUHU216HW,2013-06-08 02:34:00,
2013-06-07 19:39:00,88.4,25.0,29.83,North,0,0.0,2.5,8,0.00,,,0.00,WUHU216HW,2013-06-08 02:39:00,
2013-06-07 19:44:00,87.8,24.7,29.84,NNE,23,2.2,2.2,8,0.00,,,0.00,WUHU216HW,2013-06-08 02:44:00,
2013-06-07 19:49:00,88.2,26.6,29.84,NNW,338,2.9,5.6,11,0.00,,,0.00,WUHU216HW,2013-06-08 02:49:00,
2013-06-07 19:54:00,87.8,28.1,29.85,NNE,23,1.6,5.6,12,0.00,,,0.00,WUHU216HW,2013-06-08 02:54:00,
2013-06-07 19:59:00,87.5,27.8,29.85,North,0,0.9,4.5,12,0.00,,,0.00,WUHU216HW,2013-06-08 02:59:00,
2013-06-07 20:05:00,86.9,27.4,29.85,NE,45,3.1,4.7,12,0.00,,,0.00,WUHU216HW,2013-06-08 03:05:00,
2013-06-07 20:10:00,86.6,28.8,29.85,NNE,23,4.3,7.6,13,0.00,,,0.00,WUHU216HW,2013-06-08 03:10:00,
2013-06-07 20:15:00,86.4,28.6,29.85,North,0,2.9,7.6,13,0.00,,,0.00,WUHU216HW,2013-06-08 03:15:00,
2013-06-07 20:20:00,86.0,28.4,29.85,NNW,338,2.5,4.7,13,0.00,,,0.00,WUHU216HW,2013-06-08 03:20:00,
2013-06-07 20:25:00,86.0,28.4,29.85,NE,45,2.2,4.3,13,0.00,,,0.00,WUHU216HW,2013-06-08 03:25:00,
2013-06-07 20:30:00,85.7,28.1,29.86,North,0,1.6,4.3,13,0.00,,,0.00,WUHU216HW,2013-06-08 03:30:00,
2013-06-07 20:35:00,85.5,27.9,29.86,North,0,1.1,4.3,13,0.00,,,0.00,WUHU216HW,2013-06-08 03:35:00,
2013-06-07 20:40:00,85.3,27.8,29.86,NNW,338,0.9,3.4,13,0.00,,,0.00,WUHU216HW,2013-06-08 03:40:00,
2013-06-07 20:46:00,85.3,27.8,29.86,NNE,23,1.8,3.4,13,0.00,,,0.00,WUHU216HW,2013-06-08 03:46:00,
2013-06-07 20:51:00,85.0,29.2,29.87,NE,45,1.6,4.3,14,0.00,,,0.00,WUHU216HW,2013-06-08 03:51:00,
2013-06-07 20:56:00,84.6,30.6,29.87,NE,45,2.0,4.3,15,0.00,,,0.00,WUHU216HW,2013-06-08 03:56:00,
2013-06-07 21:01:00,84.2,30.3,29.88,East,90,0.2,2.7,15,0.00,,,0.00,WUHU216HW,2013-06-08 04:01:00,
2013-06-07 21:02:00,84.2,30.3,29.88,ESE,113,0.7,2.5,15,0.00,,,0.00,WUHU216HW,2013-06-08 04:02:00,
2013-06-07 21:07:00,83.5,31.5,29.88,ESE,113,1.1,1.6,16,0.00,,,0.00,WUHU216HW,2013-06-08 04:07:00,
2013-06-07 21:12:00,83.0,31.1,29.89,SE,135,1.3,2.5,16,0.00,,,0.00,WUHU216HW,2013-06-08 04:12:00,
2013-06-07 21:17:00,82.4,30.7,29.90,SE,135,1.1,2.5,16,0.00,,,0.00,WUHU216HW,2013-06-08 04:17:00,
2013-06-07 21:22:00,82.3,30.5,29.90,ESE,113,2.5,4.3,16,0.00,,,0.00,WUHU216HW,2013-06-08 04:22:00,
2013-06-07 21:27:00,82.1,30.4,29.90,SE,135,3.6,4.5,16,0.00,,,0.00,WUHU216HW,2013-06-08 04:27:00,
2013-06-07 21:32:00,81.9,32.0,29.90,SE,135,1.1,4.7,17,0.00,,,0.00,WUHU216HW,2013-06-08 04:32:00,
2013-06-07 21:37:00,81.5,31.7,29.90,SE,135,0.0,4.7,17,0.00,,,0.00,WUHU216HW,2013-06-08 04:37:00,
2013-06-07 21:42:00,81.0,31.2,29.90,SE,135,0.0,2.7,17,0.00,,,0.00,WUHU216HW,2013-06-08 04:42:00,
2013-06-07 21:47:00,80.5,32.5,29.90,SE,135,0.0,0.2,18,0.00,,,0.00,WUHU216HW,2013-06-08 04:47:00,
2013-06-07 21:52:00,79.9,32.0,29.90,SE,135,0.0,0.0,18,0.00,,,0.00,WUHU216HW,2013-06-08 04:52:00,
2013-06-07 21:57:00,79.4,31.5,29.90,SE,135,0.0,0.0,18,0.00,,,0.00,WUHU216HW,2013-06-08 04:57:00,
2013-06-07 22:02:00,78.8,31.1,29.91,SE,135,0.0,0.0,18,0.00,,,0.00,WUHU216HW,2013-06-08 05:02:00,
2013-06-07 22:07:00,78.1,32.1,29.91,ENE,68,0.0,0.0,19,0.00,,,0.00,WUHU216HW,2013-06-08 05:07:00,
2013-06-07 22:12:00,77.8,31.9,29.90,ENE,68,0.0,0.0,19,0.00,,,0.00,WUHU216HW,2013-06-08 05:12:00,
2013-06-07 22:17:00,77.2,34.1,29.91,North,0,0.0,0.0,21,0.00,,,0.00,WUHU216HW,2013-06-08 05:17:00,
2013-06-07 22:22:00,77.0,34.0,29.91,North,0,0.0,0.0,21,0.00,,,0.00,WUHU216HW,2013-06-08 05:22:00,
2013-06-07 22:27:00,76.7,33.7,29.91,North,0,0.0,0.0,21,0.00,,,0.00,WUHU216HW,2013-06-08 05:27:00,
2013-06-07 22:32:00,76.5,33.6,29.91,North,0,0.0,0.0,21,0.00,,,0.00,WUHU216HW,2013-06-08 05:32:00,
2013-06-07 22:37:00,76.3,34.5,29.91,SE,135,0.7,1.1,22,0.00,,,0.00,WUHU216HW,2013-06-08 05:37:00,
2013-06-07 22:42:00,76.1,34.3,29.91,SE,135,0.0,1.1,22,0.00,,,0.00,WUHU216HW,2013-06-08 05:42:00,
2013-06-07 22:47:00,75.6,33.8,29.91,ESE,113,0.0,0.7,22,0.00,,,0.00,WUHU216HW,2013-06-08 05:47:00,
2013-06-07 22:52:00,75.4,33.7,29.91,SE,135,0.7,1.1,22,0.00,,,0.00,WUHU216HW,2013-06-08 05:52:00,
2013-06-07 22:57:00,75.1,33.4,29.91,SE,135,0.0,1.1,22,0.00,,,0.00,WUHU216HW,2013-06-08 05:57:00,
2013-06-07 23:02:00,74.9,34.3,29.91,SE,135,0.0,0.7,23,0.00,,,0.00,WUHU216HW,2013-06-08 06:02:00,
2013-06-07 23:07:00,74.5,32.9,29.90,SE,135,0.0,0.0,22,0.00,,,0.00,WUHU216HW,2013-06-08 06:07:00,
2013-06-07 23:12:00,74.2,33.7,29.91,NNE,23,0.0,0.9,23,0.00,,,0.00,WUHU216HW,2013-06-08 06:12:00,
2013-06-07 23:17:00,74.0,33.6,29.91,ENE,68,0.0,0.9,23,0.00,,,0.00,WUHU216HW,2013-06-08 06:17:00,
2013-06-07 23:22:00,74.0,33.6,29.91,ESE,113,0.2,0.4,23,0.00,,,0.00,WUHU216HW,2013-06-08 06:22:00,
2013-06-07 23:27:00,73.8,34.4,29.91,ESE,113,0.2,0.7,24,0.00,,,0.00,WUHU216HW,2013-06-08 06:27:00,
2013-06-07 23:32:00,73.4,33.1,29.91,NNW,338,0.0,0.7,23,0.00,,,0.00,WUHU216HW,2013-06-08 06:32:00,
2013-06-07 23:37:00,73.3,33.0,29.91,North,0,0.2,0.7,23,0.00,,,0.00,WUHU216HW,2013-06-08 06:37:00,
2013-06-07 23:42:00,73.1,32.8,29.91,North,0,0.0,0.4,23,0.00,,,0.00,WUHU216HW,2013-06-08 06:42:00,
2013-06-07 23:47:00,72.7,33.5,29.91,North,0,0.0,0.2,24,0.00,,,0.00,WUHU216HW,2013-06-08 06:47:00,
2013-06-07 23:52:00,72.5,33.3,29.91,West,270,1.3,1.3,24,0.00,,,0.00,WUHU216HW,2013-06-08 06:52:00,
2013-06-07 23:57:00,72.5,33.3,29.90,WNW,293,0.0,1.3,24,0.00,,,0.00,WUHU216HW,2013-06-08 06:57:00,